Hourly Data Report for August 26, 2021

KUGLUKTUK A
NUNAVUT
Current Station Operator: NAVCAN

67°49'00.000" N
115°08'38.000" W
22.60 m
2300903
71938
YCO

Download Data

Hourly Data (August 2021)
Hourly Data Report for August 26, 2021
TIME
LST
Temp Definition
°C
Dew Point Definition
°C
Rel Hum Definition
%
Precip. Amount Definition
mm

Wind Dir Definition
10's deg

Wind Spd Definition
km/h
Visibility Definition
km
Stn Press Definition
kPa
Hmdx Definition


Wind Chill Definition


Weather Definition


00:00 9.0 8.0 93   1 9 24.1 100.43     LegendNANA
01:00 8.9 7.8 93   2 8 24.1 100.46     LegendNANA
02:00 8.5 7.8 95   2 10 8.1 100.50     Fog
03:00 8.4 8.1 98   2 7 2.4 100.52     Fog
04:00 8.1 7.8 98   3 8 2.4 100.55     Fog
05:00 7.9 7.7 98   5 9 1.6 100.55     Fog
06:00 7.8 7.6 98   11 6 0.2 100.57     Fog
07:00 7.9 7.7 99   10 7 1.6 100.56     Fog
08:00 8.3 8.1 99   36 3 1.2 100.57     Fog
09:00 8.4 8.2 99   7 6 0.6 100.58     Fog
10:00 8.7 8.4 98   3 9 8.1 100.57     Fog
11:00 8.9 8.6 98   5 12 16.1 100.55     Cloudy
12:00 9.6 8.4 92   7 14 16.1 100.54     LegendNANA
13:00 10.7 9.4 91   7 13 16.1 100.53     LegendNANA
14:00 11.2 9.2 88   7 23 16.1 100.49     Mostly Cloudy
15:00 11.2 9.2 87   8 27 19.3 100.46     LegendNANA
16:00 12.0 9.6 85   8 24 19.3 100.42     LegendNANA
17:00 11.0 9.2 89   8 27 24.1 100.39     Mostly Cloudy
18:00 11.9 9.0 82   9 22 19.3 100.36     LegendNANA
19:00 11.5 8.8 83   9 23 24.1 100.36     LegendNANA
20:00 10.7 8.7 88   9 19 24.1 100.35     Cloudy
21:00 12.4 9.1 80   10 20 24.1 100.33     LegendNANA
22:00 12.1 9.0 82   11 13 24.1 100.32     LegendNANA
23:00 10.7 9.0 89   8 12 24.1 100.33     Mostly Cloudy

Notes on Data Quality.

Legend

  • E = Estimated
  • M = Missing
  • NA = Not Available*
  • [empty] = Indicates an unobserved value
Date modified: